Ottumwa, IA

12:04 AM CDT on March 27, 2017 (GMT -0500)
Ottumwa Industrial

Weather History for KOTM - November, 2010

Change the Weather History Date:

Wednesday, November 3, 2010

  Actual Average Record
Temperature  
Mean Temperature 50 °F 46 °F  
Max Temperature 64 °F 56 °F 77 °F (1978)
Min Temperature 36 °F 35 °F 8 °F (1991)
Degree Days  
Heating Degree Days 15 19  
Month to date heating degree days 56 57  
Since 1 July heating degree days 450 581  
Cooling Degree Days 0 0  
Month to date cooling degree days 0 0  
Year to date cooling degree days 1105 938  
Moisture  
Dew Point 32 °F    
Average Humidity 53    
Maximum Humidity 76    
Minimum Humidity 29    
Precipitation  
Precipitation 0.00 in 0.09 in 1.29 in (1944)
Month to date precipitation 0.00 0.28  
Year to date precipitation 50.13 33.60  
Sea Level Pressure  
Sea Level Pressure 30.09 in    
Wind  
Wind Speed 14 mph (West)    
Max Wind Speed 29 mph    
Max Gust Speed 35 mph    
Visibility 10 miles    
Events      
T = Trace of Precipitation, MM = Missing Value Source: NWS Daily Summary

Daily Weather History Graph

Daily Weather History Graph

Search for Another Location

Airport or City:

Trip Planner

Search our weather history database for the weather conditions in past years. The results will help you decide how hot, cold, wet, or windy it might be!

Date:

Astronomy

Nov. 03, 2010 Rise Set
Actual Time 7:43 AM CDT 6:02 PM CDT
Civil Twilight 7:14 AM CDT 6:31 PM CDT
Nautical Twilight 6:41 AM CDT 7:04 PM CDT
Astronomical Twilight 6:09 AM CDT 7:36 PM CDT
Moon 4:41 AM CDT (11/3) 4:14 PM CDT (11/3)
Length of Visible Light 11h 17m
Length of Day
10h 19m
Waning Crescent, 9% of the Moon is Illuminated
Nov 3
Waning Crescent
Nov 5
New
Nov 13
First Quarter
Nov 21
Full
Nov 28
Last Quarter

Hourly Weather History & Observations

Time (CDT) Temp. Windchill Dew Point Humidity Pressure Visibility Wind Dir Wind Speed Gust Speed Precip Events Conditions
12:53 AM 37.9 °F 33.5 °F 30.0 °F 73% 30.22 in 10.0 mi South 5.8 mph - N/A   Clear
1:53 AM 37.0 °F 33.3 °F 30.0 °F 76% 30.21 in 10.0 mi SSW 4.6 mph - N/A   Clear
2:53 AM 39.0 °F 35.7 °F 30.9 °F 73% 30.19 in 10.0 mi SSW 4.6 mph - N/A   Clear
3:53 AM 39.0 °F 34.0 °F 32.0 °F 76% 30.16 in 10.0 mi South 6.9 mph - N/A   Clear
4:53 AM 39.9 °F 34.5 °F 32.0 °F 73% 30.13 in 10.0 mi South 8.1 mph - N/A   Mostly Cloudy
5:53 AM 42.1 °F 38.4 °F 32.0 °F 67% 30.14 in 10.0 mi SW 5.8 mph - N/A   Mostly Cloudy
6:53 AM 39.0 °F 34.0 °F 32.0 °F 76% 30.13 in 10.0 mi SSW 6.9 mph - N/A   Clear
7:53 AM 39.9 °F 34.5 °F 32.0 °F 73% 30.12 in 10.0 mi SSW 8.1 mph - N/A   Partly Cloudy
8:53 AM 43.0 °F 37.7 °F 33.1 °F 68% 30.12 in 10.0 mi WSW 9.2 mph - N/A   Clear
9:53 AM 48.0 °F - 34.0 °F 58% 30.12 in 6.0 mi WNW 13.8 mph - N/A   Haze
10:53 AM 53.1 °F - 37.0 °F 55% 30.11 in 7.0 mi WNW 12.7 mph - N/A   Clear
11:53 AM 57.0 °F - 39.0 °F 51% 30.10 in 9.0 mi WNW 13.8 mph - N/A   Clear
12:53 PM 60.1 °F - 37.9 °F 44% 30.07 in 8.0 mi WNW 15.0 mph - N/A   Clear
1:53 PM 62.1 °F - 34.0 °F 35% 30.04 in 7.0 mi NNW 20.7 mph 27.6 mph N/A   Clear
2:53 PM 60.1 °F - 33.1 °F 36% 30.02 in 10.0 mi NW 16.1 mph 26.5 mph N/A   Clear
3:53 PM 61.0 °F - 32.0 °F 34% 30.01 in 10.0 mi WNW 25.3 mph 34.5 mph N/A   Clear
4:53 PM 60.1 °F - 28.0 °F 30% 30.01 in 10.0 mi NW 21.9 mph 29.9 mph N/A   Clear
5:53 PM 55.9 °F - 27.0 °F 33% 30.01 in 10.0 mi NW 18.4 mph 28.8 mph N/A   Clear
6:53 PM 52.0 °F - 28.0 °F 40% 30.03 in 10.0 mi NW 16.1 mph - N/A   Clear
7:53 PM 51.1 °F - 28.9 °F 43% 30.04 in 10.0 mi NW 19.6 mph - N/A   Clear
8:53 PM 48.9 °F - 30.0 °F 48% 30.04 in 10.0 mi NW 16.1 mph - N/A   Clear
9:53 PM 48.0 °F - 30.0 °F 50% 30.04 in 10.0 mi NW 17.3 mph - N/A   Clear
10:53 PM 46.0 °F 39.3 °F 30.9 °F 56% 30.04 in 10.0 mi NW 16.1 mph - N/A   Clear
11:53 PM 45.0 °F 37.9 °F 33.1 °F 63% 30.05 in 10.0 mi NW 16.1 mph - N/A   Clear